Terminal Aerodrome Forecast
Issued by NWS Quad Cities IA IL

Home | Current Version | Previous Version | Text Only | Print | Product List | Glossary On
Versions: 1 2 3 4 5 6 7 8 9 10 11 12 13 14 15 16
000
FTUS43 KDVN 020907 AAA
TAFDBQ
TAF AMD
KDBQ 020907Z 0209/0306 VRB03KT P6SM SKC
      TEMPO 0211/0214 5SM BR SCT010
     FM021400 06009KT P6SM SCT015 SCT150
     FM022200 08004KT P6SM FEW120=

USA.gov is the U.S. government's official web portal to all federal, state and local government web resources and services.